Terminal Aerodrome Forecast
Issued by NWS Des Moines, IA

Home | Current Version | Previous Version | Text Only | Print | Product List | Glossary On
Versions: 1 2 3 4 5 6 7 8 9 10 11 12 13 14 15 16 17 18 19 20 21 22 23 24 25 26 27 28 29 30 31 32 33 34 35 36
000
FTUS43 KDMX 311135
TAFDSM
TAF
KDSM 311135Z 3112/0112 22008KT P6SM BKN040
     FM311700 24008KT 4SM -RASN BR SCT010 OVC020
     FM312100 19006KT 4SM -RA BR OVC010
     FM010100 14008KT 1SM -SN OVC009
     FM010600 07011KT 1SM -SN OVC009=

USA.gov is the U.S. government's official web portal to all federal, state and local government web resources and services.